Location: Krakow
(50.0212°N, 19.9423°E)
Time: 21:29:25
(UTC+02:00)

BUGSAT 1 - Pass Details

Date: 27 April 2024
Orbit: 531 x 580 km, 98.1° (Epoch: 23 May)

Event Time Altitude Azimuth Distance (km) Brightness Sun altitude
Rises 20:26:41 0° 178° (S) 2,724 ? -5.6°
Reaches altitude 10° 20:28:50 10° 184° (S) 1,843 ? -5.9°
Maximum altitude 20:32:43 49° 260° (W) 735 ? -6.4°
Drops below altitude 10° 20:36:41 10° 336° (NNW) 1,887 ? -7.0°
Sets 20:38:55 0° 342° (NNW) 2,798 ? -7.3°
